Weather History for Waukesha, WI

Change the Weather History Date:

Thursday, December 20, 2012

  Actual Average Record
Temperature  
Mean Temperature 32 °F -  
Max Temperature 35 °F 30 °F 52 °F (1967)
Min Temperature 30 °F 16 °F -10 °F (1963)
Degree Days  
Heating Degree Days 32    
Moisture  
Dew Point 32 °F    
Average Humidity 97    
Maximum Humidity 100    
Minimum Humidity 93    
Precipitation  
Precipitation 0.37 in - - ()
Sea Level Pressure  
Sea Level Pressure 29.44 in    
Wind  
Wind Speed 14 mph (NNE)    
Max Wind Speed 34 mph    
Max Gust Speed 41 mph    
Visibility 2 miles    
Events Rain , Snow    
Averages and records for this station are not official NWS values.
T = Trace of Precipitation, MM = Missing Value Source: NWS Daily Summary

Daily Weather History Graph

Daily Weather History Graph

Search for Another Location

Airport:

Trip Planner

Search our weather history database for the weather conditions in past years. The results will help you decide how hot, cold, wet, or windy it might be!

Date:

Astronomy

Dec. 20, 2012 Rise Set
Actual Time 7:20 AM CST 4:20 PM CST
Civil Twilight 6:48 AM CST 4:53 PM CST
Nautical Twilight 6:12 AM CST 5:29 PM CST
Astronomical Twilight 5:37 AM CST 6:03 PM CST
Moon 11:46 AM CST (12/20) No Moon Set
Length of Visible Light 10h 04m
Length of Day
8h 59m
First Quarter, 55% of the Moon is Illuminated
Dec 20
First Quarter
Dec 28
Full
Jan 4
Last Quarter
Jan 11
New
Jan 18
First Quarter

Hourly Weather History & Observations

Time (CST) Temp. Windchill Dew Point Humidity Pressure Visibility Wind Dir Wind Speed Gust Speed Precip Events Conditions
12:15 AM 32.0 °F 23.6 °F 32.0 °F 100% 29.85 in 1.8 mi ENE 10.4 mph - 0.02 in Snow Light Snow
12:35 AM 32.0 °F 24.2 °F 32.0 °F 100% 29.84 in 0.8 mi ENE 9.2 mph - 0.05 in Snow Snow
12:55 AM 32.0 °F 25.6 °F 32.0 °F 100% 29.83 in 0.8 mi ENE 6.9 mph - 0.09 in Snow Snow
1:35 AM 32.0 °F 24.8 °F 32.0 °F 100% 29.78 in 2.0 mi ENE 8.1 mph - 0.04 in Snow Light Snow
1:55 AM 32.0 °F 24.8 °F 32.0 °F 100% 29.78 in 1.2 mi ENE 8.1 mph - 0.05 in Snow Light Snow
2:15 AM 32.0 °F 24.2 °F 32.0 °F 100% 29.77 in 1.2 mi ENE 9.2 mph - 0.01 in Snow Light Snow
2:35 AM 32.0 °F 24.2 °F 32.0 °F 100% 29.74 in 3.0 mi ENE 9.2 mph - 0.05 in Rain Light Rain
2:55 AM 32.0 °F 21.6 °F 32.0 °F 100% 29.72 in 2.0 mi East 15.0 mph 21.9 mph 0.10 in Rain Light Rain
3:15 AM 32.0 °F 20.8 °F 32.0 °F 100% 29.68 in 2.0 mi East 17.3 mph 21.9 mph 0.03 in Snow Light Snow
3:35 AM 32.0 °F 21.2 °F 32.0 °F 100% 29.66 in 3.0 mi East 16.1 mph 21.9 mph 0.06 in Rain Rain
3:55 AM 32.0 °F 21.2 °F 32.0 °F 100% 29.64 in 2.0 mi ENE 16.1 mph 25.3 mph 0.10 in Snow Light Snow
4:15 AM 32.0 °F 22.1 °F 32.0 °F 100% 29.61 in 1.8 mi ENE 13.8 mph 21.9 mph 0.02 in Snow Light Snow
4:35 AM 32.0 °F 22.1 °F 32.0 °F 100% 29.59 in 1.0 mi ENE 13.8 mph 24.2 mph 0.03 in Snow Snow
5:45 AM 33.8 °F 24.3 °F 33.8 °F 100% 29.53 in 5.0 mi ENE 13.8 mph 27.6 mph N/A Snow Light Snow
6:45 AM 33.8 °F 25.3 °F 33.8 °F 100% 29.49 in 5.0 mi ENE 11.5 mph 23.0 mph N/A Rain Light Rain
7:45 AM 35.6 °F 25.9 °F 35.6 °F 100% 29.38 in 3.0 mi ENE 16.1 mph 34.5 mph N/A Rain Light Rain
8:45 AM 35.6 °F 26.6 °F 35.6 °F 100% 29.38 in 4.0 mi ENE 13.8 mph - N/A   Overcast
9:45 AM 35.6 °F 27.5 °F 35.6 °F 100% 29.33 in 2.0 mi NE 11.5 mph 20.7 mph N/A Rain Light Rain
10:45 AM 35.6 °F 27.5 °F 35.6 °F 100% 29.28 in 3.0 mi NNE 11.5 mph - N/A Rain Light Rain
11:45 AM 35.6 °F 27.5 °F 35.6 °F 100% 29.22 in 3.0 mi NNE 11.5 mph - N/A Rain Light Rain
12:45 PM 35.6 °F 27.5 °F 35.6 °F 100% 29.18 in 3.0 mi NNE 11.5 mph 23.0 mph N/A Rain Light Rain
1:45 PM 32.0 °F 23.0 °F 32.0 °F 100% 29.15 in 0.5 mi NNE 11.5 mph 23.0 mph N/A Snow Snow
2:45 PM 32.0 °F 23.0 °F 30.2 °F 93% 29.14 in 0.5 mi NNE 11.5 mph 23.0 mph N/A Snow Snow
3:45 PM 32.0 °F 21.2 °F 30.2 °F 93% 29.14 in 1.8 mi North 16.1 mph 29.9 mph N/A Snow Light Snow
4:45 PM 32.0 °F 21.6 °F 30.2 °F 93% 29.15 in 1.0 mi NNW 15.0 mph - N/A Snow Snow
5:45 PM 32.0 °F 21.2 °F 30.2 °F 93% 29.16 in 2.0 mi NW 16.1 mph - N/A Snow Light Snow
6:45 PM 30.2 °F 14.3 °F 30.2 °F 100% 29.16 in 2.0 mi NW 34.5 mph - N/A Snow Light Snow
7:45 PM 30.2 °F 16.8 °F 30.2 °F 100% 29.17 in 1.5 mi NW 23.0 mph - N/A Snow Light Snow
8:15 PM 32.0 °F 19.5 °F 30.2 °F 93% 29.31 in 1.2 mi NW 21.9 mph 31.1 mph N/A Snow Light Snow
8:35 PM 32.0 °F 20.1 °F 30.2 °F 93% 29.32 in 1.5 mi NW 19.6 mph 29.9 mph N/A Snow Light Snow
8:45 PM 30.2 °F 17.4 °F 30.2 °F 100% 29.33 in 1.8 mi NNW 20.7 mph - N/A Snow Light Snow
8:55 PM 32.0 °F 19.8 °F 30.2 °F 93% 29.33 in 2.0 mi NW 20.7 mph 27.6 mph N/A Snow Light Snow
9:15 PM 32.0 °F 19.5 °F 30.2 °F 93% 29.34 in 1.5 mi NW 21.9 mph 27.6 mph N/A Snow Light Snow
9:35 PM 32.0 °F 19.2 °F 30.2 °F 93% 29.36 in 1.2 mi NW 23.0 mph 31.1 mph N/A Snow Light Snow
9:55 PM 32.0 °F 20.8 °F 30.2 °F 93% 29.37 in 1.2 mi NW 17.3 mph 32.2 mph N/A Snow Light Snow
10:15 PM 32.0 °F 19.8 °F 30.2 °F 93% 29.38 in 2.0 mi NW 20.7 mph 27.6 mph N/A Snow Light Snow
10:35 PM 32.0 °F 19.5 °F 30.2 °F 93% 29.40 in 2.0 mi NW 21.9 mph 32.2 mph N/A Snow Light Snow
10:55 PM 32.0 °F 18.6 °F 30.2 °F 93% 29.40 in 2.0 mi NW 25.3 mph 31.1 mph N/A Snow Light Snow
11:15 PM 32.0 °F 19.5 °F 30.2 °F 93% 29.42 in 2.5 mi NW 21.9 mph 41.4 mph N/A Snow Light Snow
11:35 PM 32.0 °F 18.9 °F 30.2 °F 93% 29.43 in 3.0 mi NW 24.2 mph 32.2 mph N/A Snow Light Snow
11:55 PM 32.0 °F 19.2 °F 30.2 °F 93% 29.45 in 3.0 mi NW 23.0 mph 32.2 mph N/A Snow Light Snow